Tracking 26544 objects as of 9-Dec-2022
HD Live streaming from Space Station
objects crossing your sky now

ATLAS 5 CENTAUR DEB

Track ATLAS 5 CENTAUR DEB now!


NORAD ID: 44691
Int'l Code: 2018-079BD
Perigee: 9,471.0 km
Apogee: 35,562.8 km
Inclination: 10.8 °
Period: 814.4 minutes
Semi major axis: 28887 km
RCS: Unknown
Launch date: October 17, 2018
Source: United States (US)
Launch site: AIR FORCE EASTERN TEST RANGE (AFETR)

Note: This is SATELLITE DEBRIS
aabbcc
Your satellite tracking list
Your tracking list is empty




NASA's NSSDC Master Catalog

Two Line Element Set (TLE):
1 44691U 18079BD  22341.24090258 -.00000064  00000-0  00000-0 0  9992
2 44691  10.8312 164.8339 4516030  64.2895 335.3124  1.76819090 21407
Source of the keplerian elements: AFSPC